Flag for United Arab Emirates Weather past 2 weeks in Ras al-Khaimah, Ras al-Khaimah, United Arab Emirates

Now
106 °F

Sunny.


Feels Like: 109 °F
Forecast: 90 / 107 °F
Wind: 5 mph from Northwest

Location: Ras Al Khaimah International Airport

Current Time: Aug 3, 2015 at 11:21:05 AM

Latest Report: Aug 3, 2015 at 11:00 AM


Visibility: 10 mi

Pressure: 29.62 "Hg

Humidity: 25%

Dew point: 63 °F

Historic Weather in Ras al-Khaimah — Graph

°F

Ras al-Khaimah temperature yesterday

Maximum temperature yesterday: 109 °F (at 12:00 PM)
Minimum temperature yesterday: 91 °F (at 5:00 AM)
Average temperature yesterday: 100 °F

Past Weeks' High & Low Weather Summary

 TemperatureHumidityPressure
High113 °F (Jul 25, 1:00 PM)100% (Aug 1, 4:00 AM)29.62 "Hg (Aug 1, 4:00 AM)
Low73 °F (Aug 1, 4:00 AM)9% (Jul 20, 6:00 PM)29.36 "Hg (Jul 19, 2:00 PM)
Average99 °F35%29.47 "Hg
* Reported Jul 19 10:00 AM — Aug 3 10:00 AM, Ras al-Khaimah, Weather by CustomWeather, © 2015

Note: Actual official high and low records may vary slightly from our data, if they occured in-between our weather recording intervals... More about our weather records

Advertising

Ras al-Khaimah weather history for previous 24 hours

 ConditionsComfort  
Time TempWeatherWind HumidityBarometerVisibility
10:00 AM
Mon, Aug 3
100 °FSunny.6 mph40%29.62 "Hg10 mi
9:00 AM97 °FClear.6 mph50%29.62 "Hg5 mi
8:00 AM93 °FClear.9 mph63%29.62 "Hg5 mi
7:00 AM90 °FClear.5 mph67%29.62 "Hg4 mi
6:00 AM90 °FClear.2 mph63%29.59 "Hg4 mi
5:00 AM90 °FClear.5 mph63%29.59 "Hg4 mi
4:00 AM93 °FClear.2 mph56%29.56 "Hg5 mi
3:00 AM93 °FClear.3 mph56%29.56 "Hg5 mi
2:00 AM95 °FClear.3 mph53%29.56 "Hg10 mi
1:00 AM97 °FClear.6 mph32%29.56 "Hg10 mi
12:00 AM100 °FClear.14 mph24%29.56 "Hg10 mi
11:00 PM
Sun, Aug 2
99 °FClear.16 mph29%29.56 "Hg10 mi
10:00 PM99 °FClear.22 mph33%29.56 "Hg10 mi
9:00 PM99 °FClear.20 mph33%29.56 "Hg10 mi
8:00 PM100 °FClear.17 mph31%29.56 "Hg10 mi
7:00 PM102 °FClear.6 mph26%29.56 "Hg5 mi
6:00 PM104 °FPassing clouds.10 mph24%29.53 "Hg5 mi
5:00 PM104 °FPassing clouds.9 mph26%29.53 "Hg5 mi
4:00 PM104 °FPassing clouds.18 mph29%29.50 "Hg4 mi
3:00 PM106 °FClear.20 mph26%29.53 "Hg4 mi
2:00 PM108 °FClear.18 mph23%29.53 "Hg4 mi
1:00 PM108 °FClear.16 mph25%29.56 "Hg4 mi
12:00 PM109 °FClear.8 mph19%29.59 "Hg5 mi
11:00 AM108 °FClear.5 mph23%29.59 "Hg5 mi
Weather by CustomWeather, © 2015

See weather overviewHow to use our weather pages